GFSNE_500_spd_030.txt.gz
Wind_Speed
50 51 51 53 54 54 55 57 61 63 62 61 63 64 66 69 71 72 72 74 77 82 86 90 94 98 101 105 109 112 114 111 103 97 93 91 89 88
51 51 52 54 53 54 57 61 64 67 67 65 66 68 69 69 71 74 78 81 86 91 97 102 106 109 111 110 104 91 77 67 61 56 56 57 58 59
51 52 54 54 55 58 61 64 65 66 68 66 68 68 70 72 75 80 85 91 96 102 107 109 111 107 94 81 67 54 50 50 51 48 49 48 49 51
52 54 55 56 59 62 64 64 66 67 68 69 68 70 73 77 84 89 94 99 105 107 107 96 86 74 64 47 43 45 42 40 42 43 45 44 45 47
55 56 58 61 62 64 65 66 66 65 67 70 72 77 81 87 92 98 102 106 102 91 81 70 61 49 41 40 41 41 39 38 38 40 40 42 42 45
57 60 62 63 64 65 65 65 64 67 71 75 78 82 90 96 101 104 103 92 74 63 55 48 46 43 44 43 43 40 38 36 37 37 38 38 39 41
61 61 62 64 65 65 64 64 68 71 75 79 85 91 98 103 106 98 80 62 49 52 50 44 46 44 43 43 43 42 39 35 38 38 37 37 36 36
59 60 63 64 64 63 66 69 74 78 82 88 92 98 104 103 89 68 53 48 48 51 52 48 49 44 44 44 45 44 43 39 40 39 37 36 34 32
60 62 62 62 63 66 70 73 77 84 91 96 100 104 97 74 57 51 53 53 51 53 57 52 50 44 43 43 46 47 45 41 41 40 37 35 33 34
60 61 60 63 66 70 72 76 83 92 97 100 99 86 64 51 53 50 47 45 45 48 53 46 45 42 41 42 44 45 45 41 39 39 37 35 35 35
59 60 63 67 70 73 78 84 90 96 99 92 73 54 49 49 48 48 47 46 45 46 51 47 43 42 39 39 42 44 43 40 36 37 36 36 35 34
60 64 68 71 74 80 85 91 96 96 84 59 47 48 47 48 50 51 51 51 49 43 48 44 42 42 33 30 36 42 42 39 34 34 36 37 37 37
63 67 70 74 80 88 94 98 93 78 52 41 42 44 46 48 51 54 54 52 48 45 45 42 38 35 33 23 26 36 39 39 35 31 35 34 35 39
67 69 75 83 88 94 98 90 69 45 38 39 41 44 46 48 49 51 51 51 48 45 40 40 37 34 28 23 20 28 35 34 32 33 31 31 34 37
71 79 85 89 94 96 84 62 41 34 36 39 41 42 43 44 48 50 49 46 42 42 40 37 34 32 29 23 16 22 26 30 31 27 27 31 35 36
80 88 94 95 92 76 54 36 31 33 36 36 38 40 41 43 47 47 44 40 36 34 37 36 34 33 28 23 13 14 19 20 24 25 29 32 32 26
88 95 96 82 64 48 32 27 29 32 33 36 39 39 41 44 46 45 41 37 33 30 29 32 32 33 29 19 9 9 11 16 20 25 22 17 23 20
95 92 71 54 42 28 25 25 27 29 32 37 39 41 44 45 43 40 37 33 29 28 27 26 26 25 22 21 3 1 12 17 20 17 15 14 19 26
82 61 48 36 23 21 21 22 26 29 33 38 40 44 46 43 41 37 32 29 26 26 27 26 23 14 10 14 14 14 10 16 17 17 16 21 23 29
58 43 29 17 16 17 19 22 26 30 35 39 44 45 43 40 36 31 26 22 20 21 25 24 16 11 7 8 13 18 19 13 14 17 21 25 27 22
36 20 10 11 13 15 19 23 26 32 36 40 45 43 40 37 33 26 18 17 16 20 19 14 12 10 10 11 12 15 18 17 16 16 18 20 22 25
11 3 7 10 12 16 20 22 28 32 35 41 43 40 37 34 29 20 13 12 15 15 13 11 10 11 13 11 13 14 18 22 23 22 21 19 17 20
3 6 9 10 13 17 19 22 29 31 34 41 41 38 35 30 28 23 18 15 15 15 13 11 12 13 12 11 15 18 21 22 23 25 28 32 34 33

GFSNE_500_spd_033.txt.gz
Wind_Speed
44 47 49 50 53 56 57 57 59 56 52 55 58 60 62 63 64 66 66 67 69 70 73 77 82 85 88 92 95 99 103 106 107 109 110 111 110 109
46 48 50 53 55 56 57 59 57 59 61 62 62 63 63 62 63 64 66 69 72 76 81 86 90 93 98 101 106 109 107 104 98 91 85 81 76 73
47 49 52 54 58 59 59 59 62 64 65 65 67 66 64 64 65 67 71 75 80 85 90 95 100 104 108 107 100 90 82 75 67 60 55 53 54 54
48 50 53 57 61 59 61 63 64 64 66 67 66 64 66 68 72 75 79 83 89 95 100 105 108 105 91 77 66 58 50 47 46 43 44 43 42 42
50 54 55 60 59 63 65 65 65 66 67 67 65 67 70 74 77 82 88 93 98 105 107 101 83 68 60 53 47 42 45 46 44 44 42 42 43 41
53 54 58 61 63 65 63 64 66 66 65 66 68 71 75 79 84 88 92 101 104 99 82 66 57 58 57 55 52 49 47 43 43 41 39 41 40 39
56 58 60 62 62 63 65 66 65 64 67 70 72 75 80 86 92 97 101 102 81 63 58 55 55 55 53 54 55 55 52 44 44 42 39 41 38 38
57 59 61 61 63 66 66 64 65 69 73 75 77 83 90 96 99 102 99 69 48 52 52 48 52 49 50 51 51 53 54 51 47 46 42 42 41 39
57 59 60 64 64 63 63 66 69 73 77 81 87 92 96 102 102 85 58 51 48 50 50 48 52 48 49 47 46 49 49 51 51 47 44 45 42 41
58 61 62 61 61 64 67 70 72 76 83 89 95 100 104 97 73 52 48 46 47 50 54 49 51 49 47 45 48 49 48 49 49 47 42 43 43 42
59 59 59 61 65 68 71 73 77 84 91 100 104 101 82 59 49 46 47 47 45 48 54 52 50 47 44 40 45 47 48 47 44 44 42 41 42 42
56 59 63 67 71 73 77 82 87 93 99 104 87 67 49 45 47 48 47 47 47 45 55 52 48 46 36 34 37 42 44 44 40 38 39 37 39 41
59 64 68 72 76 80 85 90 94 99 94 72 52 41 42 44 46 48 49 49 49 49 53 52 42 38 34 29 30 34 38 41 39 34 33 31 33 36
65 67 72 76 81 88 93 97 98 80 56 40 36 38 40 42 46 47 50 52 53 52 48 45 37 34 31 29 28 29 34 38 37 34 28 26 26 27
70 74 79 84 91 95 97 86 64 45 33 33 34 37 40 43 46 48 51 52 50 48 44 39 35 31 31 29 25 25 27 31 34 27 20 21 22 24
76 82 87 93 96 89 69 51 35 27 29 32 34 38 42 45 48 51 51 48 42 37 38 34 30 29 28 30 23 15 20 22 27 21 17 20 24 29
84 90 95 92 77 59 42 27 24 26 30 33 36 39 43 47 50 50 45 40 37 30 26 27 28 30 31 26 13 8 13 16 15 19 22 24 28 29
93 95 84 67 49 32 20 19 22 26 30 33 37 41 46 47 43 41 38 35 26 22 19 20 23 23 24 22 4 3 9 14 18 20 20 16 19 31
91 73 55 38 20 11 14 17 22 26 29 34 38 44 43 40 39 36 33 26 18 17 20 22 20 14 11 14 18 14 8 11 15 18 19 20 18 25
59 39 23 8 7 10 13 18 22 25 30 34 40 41 37 35 32 28 23 16 14 17 20 18 14 10 9 10 14 19 19 16 17 16 21 26 27 29
26 9 6 6 7 11 15 17 21 27 30 35 40 37 33 28 26 24 22 21 18 16 14 14 15 16 15 11 13 17 23 25 22 21 21 21 23 24
9 8 7 8 11 14 15 18 24 28 31 34 37 32 28 28 26 24 21 18 17 17 17 18 16 15 14 13 16 19 21 23 29 31 29 29 31 31
10 9 9 11 14 16 17 20 24 28 30 32 34 29 28 29 28 26 24 22 21 20 18 20 20 19 17 17 17 25 25 27 31 32 35 39 39 39

GFSNE_500_spd_036.txt.gz
Wind_Speed
44 45 45 46 48 49 51 54 57 56 55 57 57 58 60 62 62 64 65 65 66 67 69 70 71 73 75 78 80 83 86 90 93 95 98 100 103 106
47 47 47 48 50 52 53 57 60 61 61 62 63 64 64 63 65 66 66 67 67 68 71 73 76 79 82 85 88 92 95 98 100 103 105 105 103 101
49 47 49 49 53 55 57 60 63 66 66 67 67 68 67 68 67 67 68 68 69 72 76 79 82 86 89 93 96 99 103 104 99 91 84 76 71 69
46 50 54 54 56 58 62 65 64 66 67 68 69 68 69 69 69 68 69 72 76 80 83 87 90 94 97 100 104 105 90 76 66 59 56 53 51 51
48 50 51 54 59 62 64 64 66 68 70 69 70 70 70 68 69 72 74 77 81 87 92 96 98 101 106 102 86 70 65 62 61 61 57 54 53 52
51 50 55 58 61 61 66 67 68 68 69 71 71 69 69 71 75 77 78 84 88 95 100 102 106 101 83 70 62 59 59 58 57 56 55 57 54 52
56 56 58 60 61 64 66 67 67 68 69 69 69 72 73 77 80 83 88 91 97 104 107 98 85 68 60 59 58 58 59 59 57 56 52 52 55 52
55 58 57 59 62 64 65 67 67 67 68 72 74 77 80 84 88 92 96 100 102 94 83 62 55 52 54 56 58 59 59 60 58 55 51 50 51 53
55 59 60 61 63 65 64 64 66 70 74 78 79 83 86 92 97 101 105 103 84 58 53 47 54 52 54 55 58 59 61 60 57 54 52 50 49 50
57 58 59 61 62 62 64 67 70 73 77 81 86 90 97 101 105 102 86 66 45 48 54 46 52 51 52 54 57 60 61 59 55 52 49 47 47 47
57 59 58 58 62 66 69 71 74 80 85 90 95 100 104 99 86 67 48 43 44 46 54 49 50 51 52 52 54 56 56 54 51 49 45 43 40 42
55 56 59 63 66 69 73 76 80 85 91 97 102 98 84 66 53 45 45 44 46 47 56 54 53 57 53 48 44 47 48 50 48 45 42 37 31 34
56 60 64 68 73 77 81 86 90 94 98 99 85 64 54 44 44 47 48 51 53 55 59 61 58 57 52 38 33 38 40 43 44 43 41 34 24 25
61 65 69 74 79 84 88 93 97 99 88 63 52 41 39 42 44 47 52 56 58 60 59 59 50 41 33 28 28 30 37 38 39 39 39 33 22 18
68 71 77 82 87 91 96 99 92 68 50 38 33 35 38 41 46 50 55 59 55 52 51 47 39 27 25 25 23 26 30 31 38 35 30 21 17 17
74 80 85 91 95 97 92 73 51 35 25 27 31 35 38 43 49 54 53 50 45 39 41 35 25 23 24 28 24 18 21 20 25 24 19 16 15 16
80 87 94 100 95 74 50 32 18 20 23 27 31 36 41 47 47 45 44 40 32 24 21 27 27 27 28 24 8 8 10 17 18 18 20 21 24 24
92 98 96 70 45 29 15 14 16 21 24 29 33 39 42 39 37 36 32 27 21 18 19 19 20 19 21 21 10 8 12 16 20 23 23 17 20 28
94 69 42 26 11 10 12 15 18 21 27 29 35 38 35 33 31 29 26 24 24 24 23 19 17 14 12 15 22 17 8 11 15 20 25 24 18 26
40 23 12 11 11 12 14 16 19 24 27 32 35 33 30 30 28 28 26 22 21 21 20 19 17 15 13 12 15 22 29 26 24 21 22 25 29 31
11 12 12 12 13 15 16 18 21 26 28 32 34 34 30 28 26 24 24 23 21 21 21 21 20 20 18 18 19 22 26 32 34 34 36 33 32 33
12 12 12 13 14 15 18 20 23 26 29 32 35 34 31 29 27 25 23 22 23 23 24 24 21 20 21 21 22 24 27 30 37 41 42 41 38 33
13 14 14 15 15 17 19 20 23 26 27 30 33 34 31 29 29 27 25 23 23 24 21 20 23 26 27 25 26 29 35 38 36 36 39 35 28 27

GFSNE_500_spd_039.txt.gz
Wind_Speed
51 50 46 46 50 49 47 48 50 51 53 56 59 61 63 65 67 66 68 66 67 68 70 71 71 72 72 72 72 74 75 76 78 80 81 83 85 88
53 52 51 51 46 51 47 50 55 57 59 60 62 66 69 70 69 69 69 70 70 72 72 72 72 72 74 75 77 79 81 83 85 87 89 90 92 95
56 57 58 47 44 50 49 54 53 56 62 66 67 70 71 71 70 72 73 73 74 74 74 73 74 76 78 81 82 84 87 90 93 95 97 99 101 101
54 52 50 49 49 51 55 61 61 64 67 70 70 69 70 72 73 73 74 74 73 73 75 77 79 81 84 87 91 93 96 100 104 105 103 99 94 82
50 51 54 53 52 61 62 63 67 68 70 69 69 72 71 71 73 72 71 72 74 77 80 83 86 89 93 96 100 104 106 104 99 90 79 67 62 61
53 49 50 57 58 67 65 67 64 65 68 70 71 72 72 71 71 73 73 77 80 83 88 90 95 101 105 107 109 103 88 76 67 62 59 56 55 54
53 53 54 53 60 61 63 66 67 68 70 71 72 71 70 73 77 79 80 82 85 92 96 100 106 108 103 96 78 62 57 56 57 56 54 53 54 54
61 59 56 55 58 63 66 68 69 72 70 69 71 74 77 80 82 84 86 89 92 101 106 105 97 81 69 56 55 57 57 58 58 57 56 56 57 58
57 61 58 63 66 66 67 68 68 68 72 76 78 80 82 85 89 92 96 100 104 103 95 75 61 52 52 52 55 56 58 60 60 59 59 60 61 60
61 60 67 69 65 64 65 65 68 73 77 80 83 86 90 93 97 100 103 104 86 66 60 48 50 50 49 52 55 57 60 62 63 63 64 63 59 52
51 59 60 59 60 63 67 70 74 79 82 86 91 94 98 101 104 101 82 65 49 46 54 54 52 52 54 55 55 59 63 64 67 66 62 53 46 42
54 56 57 60 64 69 74 77 80 84 88 92 98 102 103 92 73 57 47 45 48 47 55 57 59 62 60 56 52 51 51 54 57 54 47 45 41 38
54 57 61 65 70 75 80 84 88 92 96 101 100 83 62 46 41 44 48 49 52 56 62 65 60 54 49 42 34 37 40 44 46 45 45 42 40 38
55 60 65 71 76 81 86 91 97 100 92 74 53 37 32 36 41 45 50 55 56 54 53 53 42 32 25 20 19 23 32 36 38 39 40 41 37 25
63 68 73 78 82 89 95 99 84 62 41 26 25 29 33 38 44 48 48 43 42 43 39 30 20 18 21 21 18 22 29 30 35 32 27 21 17 17
70 75 81 86 92 94 78 53 32 19 19 23 26 31 36 41 42 37 35 33 32 31 35 32 28 25 22 23 17 12 14 10 21 22 21 23 22 17
79 85 89 89 74 47 25 16 17 18 21 25 29 34 37 34 34 34 32 31 30 26 25 26 26 25 24 20 8 16 16 19 23 22 24 24 26 25
88 85 67 39 19 15 17 15 18 20 24 27 32 34 33 32 33 33 31 29 28 27 23 22 22 21 24 29 23 22 24 15 20 25 29 28 26 30
64 35 17 15 18 15 17 19 20 22 25 28 32 34 32 33 33 30 28 25 25 27 28 26 24 21 17 17 27 35 17 20 27 24 26 25 23 29
20 15 17 17 18 18 19 20 21 23 26 28 32 35 34 31 30 27 26 24 23 24 27 27 25 23 21 19 19 25 34 32 33 34 36 36 36 36
16 17 19 20 20 20 20 21 22 24 26 27 30 33 36 34 32 29 27 27 27 28 29 27 26 27 27 25 24 25 28 36 42 45 43 35 29 28
16 19 21 21 22 22 22 22 23 23 25 27 28 31 36 37 34 30 29 28 28 28 29 27 27 28 28 26 27 28 32 33 38 38 35 26 14 11
20 22 23 23 23 24 24 23 23 23 25 28 28 30 33 36 36 32 30 29 29 28 27 26 28 29 29 30 34 32 33 35 39 37 38 24 15 13

GFSNE_500_spd_045.txt.gz
Wind_Speed
57 54 53 52 52 50 47 49 55 49 54 56 56 59 59 58 63 59 57 58 58 62 66 65 68 68 71 75 73 73 73 74 74 74 73 72 72 74
58 56 56 54 54 55 53 50 53 57 56 60 57 55 62 65 62 59 63 65 66 68 71 72 70 73 75 75 75 74 74 74 73 73 72 72 73 73
61 60 57 58 58 57 55 53 55 57 60 61 56 61 63 65 67 65 69 68 70 71 72 73 74 74 75 75 74 74 75 74 75 76 77 78 79 80
61 60 60 57 55 55 57 60 61 61 61 62 65 67 70 72 73 70 70 71 72 72 72 72 74 74 76 77 78 79 80 80 82 83 84 86 87 89
55 57 58 60 61 57 58 60 61 61 63 63 65 72 69 63 65 68 69 75 72 68 70 74 77 80 84 86 87 88 89 90 92 93 94 96 97 98
48 49 50 54 57 58 62 62 56 61 62 66 67 64 62 65 68 72 77 70 70 72 77 82 85 89 93 96 97 99 101 102 104 105 107 108 107 106
47 48 55 52 55 60 65 57 60 61 61 58 59 63 68 71 72 72 72 75 77 81 85 90 94 98 103 106 106 104 101 94 89 83 78 74 71 68
43 47 49 56 58 59 63 62 67 59 57 62 64 65 68 70 71 74 77 80 83 89 93 98 103 103 95 79 69 64 61 60 58 57 55 54 52 51
39 47 48 53 53 56 55 57 58 59 63 65 64 65 69 74 76 80 85 88 92 98 99 90 76 57 54 56 59 62 64 66 66 66 64 61 58 56
44 46 51 54 55 52 53 53 56 59 62 66 70 74 78 82 85 88 91 92 85 63 57 45 50 51 54 55 58 59 58 56 56 56 57 58 58 59
47 45 44 47 49 50 51 54 58 63 68 72 77 81 85 88 88 85 70 50 40 48 51 49 45 38 38 42 43 44 42 40 38 35 30 25 24 29
34 35 37 41 45 51 56 61 65 71 77 82 85 85 79 67 48 35 37 42 45 47 41 29 31 30 28 33 38 39 38 36 34 32 30 27 24 20
32 37 42 47 53 58 63 67 74 78 76 70 60 47 34 31 34 37 41 42 37 34 31 27 29 30 29 27 31 35 35 37 34 30 24 19 17 15
36 41 47 53 59 64 67 70 65 55 46 36 29 30 31 31 33 38 41 38 36 34 33 27 27 30 31 30 29 31 32 34 26 29 27 23 18 17
42 48 52 58 65 62 53 47 43 33 27 29 28 29 30 31 33 37 40 37 38 37 32 29 28 29 31 33 29 29 22 28 29 29 31 28 25 24
46 54 57 62 57 45 42 33 28 27 28 30 30 31 31 32 33 35 37 39 35 36 37 35 34 34 34 33 31 28 17 19 23 25 24 29 31 33
52 57 59 51 42 34 28 27 27 29 31 31 32 32 32 32 33 34 36 39 38 33 33 36 35 34 36 35 30 27 26 30 23 27 30 26 34 39
58 62 53 39 30 27 26 28 30 31 31 32 31 31 31 30 33 35 36 36 38 34 32 32 30 30 33 36 40 35 34 33 35 38 37 33 32 38
62 57 40 29 27 27 30 31 31 31 32 32 32 31 31 32 33 34 35 36 37 35 33 31 28 28 25 24 34 42 36 35 33 35 36 34 30 28
60 42 30 26 29 31 33 32 32 32 31 31 30 30 29 30 31 33 34 35 36 34 32 33 32 30 28 26 25 32 40 40 40 39 37 34 29 21
46 31 25 27 31 32 32 32 32 31 30 30 30 30 30 30 31 32 33 35 36 36 33 32 33 33 34 34 32 33 38 43 44 42 36 31 27 21
34 26 27 29 30 30 33 32 31 30 30 30 31 31 30 30 30 31 33 33 34 35 35 34 35 34 36 36 34 35 34 39 42 41 40 36 27 11
27 27 28 29 29 31 32 32 31 30 30 30 30 30 30 30 31 32 33 34 35 35 36 32 32 33 36 37 38 39 39 39 38 33 35 36 32 22

GFSNE_500_spd_048.txt.gz
Wind_Speed
61 59 62 61 59 58 58 58 57 55 56 52 61 59 60 58 60 57 60 58 58 64 63 64 66 67 66 67 69 69 71 73 75 75 74 75 78 78
61 61 61 61 60 59 65 56 58 59 60 60 64 62 63 68 70 63 64 58 63 65 67 69 71 73 71 72 72 74 76 78 81 80 77 77 78 79
61 61 63 63 62 60 61 62 62 63 63 63 65 67 72 70 70 66 66 63 64 67 75 72 75 77 75 75 76 79 81 80 78 76 77 78 80 81
59 61 61 62 61 60 68 59 67 67 64 64 69 69 74 70 67 69 69 69 70 70 67 66 69 71 74 79 82 83 81 79 81 83 85 87 90 91
55 55 57 58 58 58 59 60 70 62 56 62 66 70 74 69 65 68 72 71 64 65 69 73 76 76 77 79 81 82 84 87 90 94 97 99 101 102
49 49 49 49 53 54 56 59 67 59 66 67 63 67 75 69 71 66 62 65 69 71 72 74 76 79 82 86 88 90 94 97 101 105 106 103 101 102
39 40 41 43 48 48 52 58 62 62 63 67 71 71 75 72 66 66 68 66 68 73 75 79 82 85 89 93 97 100 102 98 88 76 66 63 64 64
31 32 35 36 45 48 53 55 54 60 68 63 66 66 65 66 65 67 70 73 76 81 84 87 91 93 93 89 81 73 66 62 60 56 52 51 53 57
31 33 37 39 44 47 54 59 61 61 63 64 64 63 63 66 69 73 78 82 85 89 88 80 69 58 57 58 61 61 57 46 40 38 37 40 43 45
33 36 35 40 43 49 51 51 51 51 55 59 63 67 71 74 77 82 83 81 75 63 52 43 51 53 55 52 50 44 40 37 36 33 34 34 36 38
35 38 40 45 42 37 40 45 49 53 56 61 66 70 75 78 73 67 59 45 37 42 44 46 48 42 40 43 44 44 43 41 41 40 36 32 30 32
31 27 29 33 37 42 47 51 54 58 64 65 66 65 60 55 50 40 36 37 35 38 41 38 39 36 32 38 41 44 44 43 42 39 35 29 25 23
23 28 33 37 42 47 51 56 58 64 62 56 52 50 45 38 37 36 36 38 39 42 41 37 36 34 32 33 39 41 43 42 38 36 33 27 21 22
28 32 36 42 47 51 56 57 61 59 51 47 41 37 36 35 36 37 37 38 40 40 40 40 33 32 32 33 33 39 41 41 35 35 32 32 26 18
33 38 41 46 51 56 59 62 54 44 40 36 35 35 37 37 37 36 36 35 36 39 38 43 36 30 32 32 31 35 33 32 36 29 31 32 34 32
37 41 45 51 56 60 63 53 40 36 34 33 36 37 37 37 36 35 33 33 35 38 39 42 41 34 32 33 32 31 32 27 28 34 30 31 37 41
42 46 50 55 60 63 50 36 32 31 34 35 36 37 37 37 36 35 34 35 34 34 37 40 41 33 31 34 32 33 30 30 29 30 31 31 36 40
46 50 56 61 62 47 34 30 32 34 35 35 35 36 36 35 35 35 34 34 34 34 36 37 37 32 31 34 37 37 35 33 32 36 37 33 35 38
47 52 61 63 44 33 29 31 33 32 35 35 35 35 34 34 34 33 33 34 33 34 36 38 37 32 26 26 32 43 34 33 31 34 35 35 32 32
51 59 64 43 32 29 31 31 32 34 34 34 33 33 33 33 33 33 33 32 32 33 34 37 38 33 28 25 25 32 41 37 38 37 37 35 33 30
54 64 52 34 29 30 29 29 31 33 33 33 33 33 33 32 33 32 33 34 33 33 33 34 36 36 32 30 29 31 36 40 41 40 39 36 30 27
59 58 39 31 29 28 26 26 29 31 33 33 33 34 34 34 34 34 34 33 33 33 33 34 35 36 38 37 33 31 33 36 40 42 44 43 33 23
58 47 32 27 27 27 26 28 31 33 34 34 35 35 35 35 35 35 34 35 33 33 33 32 33 34 36 36 34 34 36 35 37 38 41 42 36 27

GFSNE_500_spd_051.txt.gz
Wind_Speed
62 62 62 63 58 60 60 59 55 54 58 58 64 64 56 57 59 60 63 63 63 67 67 64 71 68 65 64 67 68 65 64 64 66 70 70 68 70
59 59 60 59 59 60 56 57 58 57 57 57 60 61 56 61 64 66 67 70 66 68 65 71 73 69 69 65 69 67 66 68 71 76 76 76 77 79
58 59 57 57 56 56 56 53 56 60 55 63 63 67 59 65 69 66 74 70 68 73 74 68 71 68 69 72 75 75 71 69 67 71 74 78 81 82
58 56 56 55 57 56 57 58 60 61 63 62 70 62 55 65 67 61 60 67 69 71 70 74 71 70 72 73 68 67 69 71 75 78 79 82 85 86
54 54 55 54 56 58 59 59 58 61 63 64 67 71 70 68 72 67 62 64 67 71 74 74 75 71 71 70 70 72 73 75 77 79 82 85 88 91
44 46 47 50 51 51 53 54 54 55 54 55 58 61 64 67 69 71 74 72 70 67 65 67 68 69 70 71 74 77 81 83 86 89 92 95 96 96
35 37 39 41 43 44 45 46 48 50 54 56 57 64 66 68 68 67 68 66 65 66 67 70 72 75 78 81 85 88 90 91 90 85 75 67 64 66
22 25 26 29 32 35 39 38 44 47 51 57 61 63 62 63 56 59 62 64 68 71 72 77 79 81 82 82 79 75 70 62 58 58 60 56 51 51
19 22 25 29 29 35 42 42 48 50 51 56 54 55 56 58 60 64 68 70 74 75 75 74 70 62 58 54 55 55 55 55 52 44 42 42 43 44
18 22 24 28 33 40 42 44 47 48 47 48 50 54 58 60 63 67 71 72 71 64 57 48 46 43 45 51 52 51 48 42 39 40 41 43 45 45
18 23 28 35 35 34 32 35 40 45 48 52 56 60 61 65 67 66 62 56 48 43 41 40 41 41 44 47 47 46 42 37 36 38 41 40 38 36
20 20 22 24 28 32 37 41 45 49 53 57 61 62 66 64 58 50 43 41 40 40 38 40 42 42 37 43 44 45 42 40 40 42 42 39 36 32
19 22 26 31 34 38 42 46 51 55 60 63 66 66 54 46 40 39 39 39 40 41 40 38 37 39 38 39 39 42 42 42 42 41 41 36 35 27
24 28 31 35 40 44 48 51 56 63 66 68 65 50 41 38 38 40 41 40 40 40 39 36 33 37 35 38 35 35 37 37 39 37 36 36 31 31
31 35 38 41 45 49 52 58 64 67 68 57 44 38 38 39 41 41 41 39 38 39 38 38 35 36 36 38 31 29 30 32 37 36 33 33 36 40
36 39 42 44 49 52 56 61 69 63 48 38 36 39 40 40 40 39 38 37 36 37 37 37 36 36 35 38 36 31 32 30 33 33 31 31 35 39
39 42 44 48 52 56 61 68 57 42 36 36 38 39 39 40 40 39 37 35 34 35 36 37 37 36 35 36 35 34 30 30 30 29 30 28 33 38
42 45 47 49 53 56 64 55 39 34 35 35 36 38 37 37 37 36 35 35 34 35 35 37 36 34 35 35 38 35 36 33 32 31 33 29 30 36
44 45 47 52 56 61 58 39 33 34 32 32 33 34 34 34 35 35 35 35 34 34 35 37 37 37 33 31 33 38 35 33 32 32 33 32 31 35
45 46 50 55 58 60 43 32 32 32 29 30 31 32 33 33 34 35 35 36 36 36 35 37 38 37 36 34 32 32 38 33 33 31 33 34 35 36
45 48 52 57 60 50 34 31 30 30 29 30 32 34 35 35 35 36 36 36 36 36 34 35 37 37 35 35 33 32 36 41 41 36 34 36 34 32
47 51 54 59 53 42 33 31 32 32 32 33 34 36 36 38 37 36 37 37 36 36 35 35 36 36 35 36 34 32 32 40 42 39 42 42 41 33
48 51 56 56 46 37 33 32 34 35 36 37 39 39 39 39 40 40 40 39 38 37 37 36 35 36 35 36 37 34 34 38 38 37 39 43 42 41

GFSNE_500_spd_054.txt.gz
Wind_Speed
65 65 63 61 61 58 58 56 58 59 56 50 57 62 57 53 51 49 57 52 53 53 59 64 65 65 60 64 64 67 68 60 62 67 68 65 65 61
63 62 63 59 59 58 56 57 56 57 56 61 56 47 54 55 50 53 54 63 58 65 61 63 64 68 69 68 67 67 70 67 65 63 66 67 72 73
55 56 56 51 54 56 55 55 53 52 51 54 58 64 55 48 55 61 64 55 63 63 68 61 64 62 62 64 67 65 69 69 69 68 68 70 71 71
47 47 52 54 55 56 51 49 44 52 60 53 71 55 63 66 65 64 66 68 66 67 68 68 68 65 67 70 64 67 68 68 67 66 68 69 68 69
40 43 45 52 53 52 53 50 50 54 57 58 59 61 63 64 62 63 61 55 58 62 67 68 68 67 67 66 64 65 65 64 65 66 68 71 72 74
34 41 41 42 43 47 47 49 49 50 52 53 55 58 59 60 61 65 64 62 65 69 67 66 65 62 61 64 66 67 68 69 70 72 75 77 80 83
27 32 32 33 30 35 37 40 42 45 47 49 51 53 53 49 56 58 60 61 59 59 59 61 61 65 69 72 74 74 74 74 74 73 71 71 70 71
21 25 30 35 30 28 31 35 36 38 42 48 46 47 51 55 54 52 54 56 59 62 60 65 64 71 73 74 74 70 67 64 62 60 58 56 56 58
13 15 19 21 22 24 27 30 31 35 40 44 47 47 51 54 53 54 57 60 60 62 64 68 68 67 62 58 55 52 52 50 49 49 50 50 47 45
14 11 16 18 17 20 24 28 34 39 38 39 41 46 49 52 56 60 62 64 67 68 63 61 55 49 46 47 46 47 47 48 48 46 45 43 42 39
13 15 18 20 22 22 22 25 29 34 38 43 47 51 55 60 64 66 66 67 62 56 49 43 42 40 42 46 46 46 46 45 46 43 41 40 38 38
15 16 18 19 22 26 29 33 36 40 44 47 51 56 61 66 70 66 56 47 43 41 39 40 43 41 37 42 43 43 43 43 43 44 40 37 37 37
21 22 24 25 27 31 34 37 41 45 48 52 57 63 68 70 59 45 38 38 39 41 41 40 40 39 37 34 38 39 40 41 44 43 38 36 34 36
26 27 30 32 34 37 40 42 45 48 51 56 63 68 65 48 39 38 40 41 41 41 41 40 38 37 35 37 36 37 38 39 40 37 36 35 35 35
32 32 34 37 38 41 44 45 48 53 58 64 69 59 42 37 39 40 40 40 41 41 41 40 37 34 34 34 32 36 35 36 37 34 32 31 34 36
33 34 36 39 40 43 46 48 51 57 62 66 54 38 35 37 38 40 40 38 36 37 38 38 37 35 33 33 32 33 35 35 34 33 29 32 34 36
36 37 39 41 43 45 49 51 54 60 62 51 36 35 35 34 35 34 34 34 33 34 36 37 37 36 35 33 32 33 34 34 34 28 28 29 31 35
38 40 42 43 45 48 51 54 57 60 53 40 34 34 32 32 32 32 32 32 32 34 34 36 38 38 35 33 37 34 36 35 34 32 33 30 28 35
41 42 43 45 46 49 52 55 58 54 45 36 33 33 32 32 33 34 33 33 33 33 34 35 38 39 35 33 34 39 36 37 34 32 34 30 25 31
42 43 43 45 47 50 53 57 56 48 40 35 34 34 35 35 35 35 36 36 36 35 35 36 39 39 37 35 31 33 41 37 36 31 30 27 28 30
43 44 44 46 48 52 55 57 51 45 39 36 36 37 39 39 40 40 39 40 40 38 37 37 40 42 41 38 33 33 35 39 39 35 30 29 29 30
44 44 45 48 51 54 57 55 47 42 39 38 39 40 42 42 43 43 42 42 42 41 41 41 42 43 42 41 36 35 34 36 39 39 38 36 33 27
44 44 47 50 53 57 58 52 45 42 41 41 43 44 45 44 45 45 45 45 45 44 45 44 44 46 43 41 38 34 34 35 38 38 38 43 41 38